Location: Ethel Rock
(53.4667°N, 4.5667°W)
Time: 00:59:53
(UTC+00:00)

Cosmos 2058 Rocket - Pass Details

Date: 24 October 2020
Orbit: 610 x 639 km, 82.5° (Epoch: 26 November)

Event Time Altitude Azimuth Distance (km) Brightness Sun altitude
Rises 05:42:29 0° 348° (NNW) 2,959 6.4 -12.5°
Reaches altitude 10° 05:44:45 10° 349° (N) 2,044 5.6 -12.2°
Maximum altitude 05:49:18 89° 80° (E) 646 3.1 -11.5°
Drops below altitude 10° 05:53:47 10° 170° (S) 2,017 5.9 -10.8°
Sets 05:56:01 0° 170° (S) 2,916 6.7 -10.5°
